Regional Weather Roundup
Issued by NWS

Home | Current Version | Previous Version | Graphics & Text | Print | Product List | Glossary On
Versions: 1 2 3 4 5 6 7 8 9 10 11 12 13 14 15 16 17 18 19 20 21 22 23 24 25 26 27 28 29 30 31 32 33 34 35 36 37 38 39 40 41 42 43 44 45 46 47 48 49 50
000
ASUS44 KMEG 180410
RWRTN
TENNESSEE HOURLY STATE WEATHER ROUNDUP
NATIONAL WEATHER SERVICE MEMPHIS TN
1000 PM CST SAT FEB 17 2018

TNZ002-004-019-021-049-052-054-088>092-180500-
WEST TENNESSEE

CITY           SKY/WX    TMP DP  RH WIND       PRES   REMARKS
MEMPHIS INTL   FAIR      44  41  89 CALM      30.26S
NWS MEMPHIS      N/A     41 N/A N/A MISG        N/A
JACKSON        FAIR      41  40  96 N3        30.27R
DYERSBURG      FAIR      38  38 100 CALM        N/A  FOG
COVINGTON      MOCLDY    41  39  93 CALM      30.27R
UNION CITY     FOG       39  39 100 CALM      30.26R VSB 1/2
BOLIVAR        PTCLDY    43  39  87 CALM      30.25R
PARIS          PTCLDY    36  36 100 CALM      30.25R FOG
HUNTINGDON     FOG       39  39 100 CALM      30.25R VSB 3/4
LEXINGTON      CLOUDY    45  39  81 N7        30.26R
SELMER         CLOUDY    45  41  87 N7        30.25R
SAVANNAH       CLOUDY    46  43  87 N8        30.25R
$$

TNZ008-025-027-028-033-062-065-066-180500-
NORTH MIDDLE TENNESSEE

CITY           SKY/WX    TMP DP  RH WIND       PRES   REMARKS
NASHVILLE      MOCLDY    47  43  86 NW6       30.24R
PORTLAND       CLOUDY    43  39  87 NW13G20   30.23R
CLARKSVILLE    FAIR      41  36  82 NW6       30.25R
SMYRNA         CLOUDY    47  44  90 NW7       30.25R
COOKEVILLE     CLOUDY    46  45  93 NW6       30.21R
GALLATIN       CLOUDY    46  41  81 NW8       30.26R
CROSSVILLE     CLOUDY    43  42  97 NW10      30.19R FOG
$$

TNZ061-075-076-078-094-096-097-180500-
SOUTH MIDDLE TENNESSEE

CITY           SKY/WX    TMP DP  RH WIND       PRES   REMARKS
FAYETTEVILLE   CLOUDY    46  46 100 N5        30.21R
TULLAHOMA      CLOUDY    46  45  93 NW8       30.21R
WINCHESTER     CLOUDY    45  45 100 VRB6      30.21R
MCMINNVILLE    CLOUDY    46  45  93 NW5       30.22R
COLUMBIA       CLOUDY    46  46 100 NW5       30.23R
SHELBYVILLE    CLOUDY    46  45  93 NW8       30.23R
$$

TNZ017-018-042-046-047-180500-
NORTHEAST TENNESSEE

CITY           SKY/WX    TMP DP  RH WIND       PRES   REMARKS
TRI CITIES     CLOUDY    47  47 100 SW8       30.15R
ELIZABETHTON   CLOUDY    48  46  93 W7        30.15R
$$

TNZ012-013-036-069-073-074-180500-
CENTRAL EAST TENNESSEE

CITY           SKY/WX    TMP DP  RH WIND       PRES   REMARKS
KNOXVILLE      FAIR      47  46  97 SW10      30.18S
OAK RIDGE      CLOUDY    48  47  96 S7        30.19R
DOWNTOWN KNOXV MOCLDY    46  46 100 CALM      30.19S
GATLINBURG     CLOUDY    50  46  87 VRB5      30.19R
MORRISTOWN     CLOUDY    46  46 100 SW9       30.16S FOG
$$

TNZ083-085-099-180500-
SOUTHEAST TENNESSEE

CITY           SKY/WX    TMP DP  RH WIND       PRES   REMARKS
CHATTANOOGA    MOCLDY    51  46  83 N9        30.20R
$$

SKY/WX REPORTED AS FAIR MEANS FEW OR NO CLOUDS BELOW
12 THOUSAND FEET.





USA.gov is the U.S. government's official web portal to all federal, state and local government web resources and services.